Springfield, MO

5:06 AM CST on December 13, 2019 (GMT -0600)
Springfield-Branson Regional

Weather History for KSGF - October, 2019

Change the Weather History Date:

Tuesday, October 29, 2019

  Actual Average Record
Temperature  
Mean Temperature 39 °F 54 °F  
Max Temperature 41 °F 65 °F 86 °F (1950)
Min Temperature 37 °F 43 °F 21 °F (1952)
Degree Days  
Heating Degree Days 26 12  
Month to date heating degree days 273 228  
Since 1 July heating degree days 273 283  
Cooling Degree Days 0 0  
Month to date cooling degree days 37 27  
Year to date cooling degree days 1687 1386  
Moisture  
Dew Point 37 °F    
Average Humidity 89    
Maximum Humidity 92    
Minimum Humidity 86    
Precipitation  
Precipitation 0.69 in 0.12 in 2.35 in (2013)
Month to date precipitation 7.39 3.36  
Year to date precipitation 49.08 38.08  
Snow  
Snow 0.00 in - - ()
Month to date snowfall 0.0  
Since 1 July snowfall 0.0  
Since 1 September snowfall 0.0  
Snow Depth 0.00 in    
Sea Level Pressure  
Sea Level Pressure 30.15 in    
Wind  
Wind Speed 11 mph (NNE)    
Max Wind Speed 18 mph    
Max Gust Speed 27 mph    
Visibility 4 miles    
Events Fog , Rain , Snow    
T = Trace of Precipitation, MM = Missing Value Source: NWS Daily Summary

Daily Weather History Graph

Daily Weather History Graph

Search for Another Location

Airport or City:

Astronomy

Oct. 29, 2019 Rise Set
Actual Time 7:34 AM CDT 6:19 PM CDT
Civil Twilight 7:07 AM CDT 6:46 PM CDT
Nautical Twilight 6:37 AM CDT 7:16 PM CDT
Astronomical Twilight 6:06 AM CDT 7:46 PM CDT
Moon 9:07 AM CDT (10/29) 7:45 PM CDT (10/29)
Length of Visible Light 11h 38m
Length of Day
10h 44m
Waxing Crescent, 3% of the Moon is Illuminated
Oct 29
Waxing Crescent
Nov 4
First Quarter
Nov 12
Full
Nov 19
Last Quarter
Nov 26
New

Hourly Weather History & Observations

Time (CDT) Temp. Windchill Dew Point Humidity Pressure Visibility Wind Dir Wind Speed Gust Speed Precip Events Conditions
12:52 AM 41.0 °F 34.3 °F 39.0 °F 93% 30.10 in 10.0 mi NNW 11.5 mph - 0.00 in Rain Light Rain
2:52 AM 39.9 °F 33.4 °F 37.9 °F 93% 30.10 in 10.0 mi North 10.4 mph - N/A   Overcast
3:52 AM 39.9 °F 34.5 °F 37.9 °F 93% 30.11 in 8.0 mi NNW 8.1 mph - N/A   Overcast
4:12 AM 39.9 °F 33.9 °F 37.9 °F 93% 30.11 in 2.5 mi NNW 9.2 mph - N/A   Overcast
4:37 AM 39.9 °F 33.9 °F 37.9 °F 93% 30.12 in 3.0 mi NNW 9.2 mph - N/A   Overcast
4:52 AM 39.0 °F 32.8 °F 37.9 °F 96% 30.13 in 2.5 mi NW 9.2 mph - N/A   Overcast
5:18 AM 39.0 °F 31.8 °F 37.9 °F 96% 30.13 in 7.0 mi North 11.5 mph - N/A   Overcast
5:37 AM 39.0 °F 32.3 °F 37.0 °F 93% 30.14 in 2.0 mi NNW 10.4 mph - N/A   Overcast
5:48 AM 39.2 °F 32.0 °F 37.4 °F 93% 30.14 in 0.5 mi NNW 11.5 mph - N/A   Overcast
5:52 AM 39.0 °F 32.3 °F 37.0 °F 93% 30.15 in 0.5 mi NNW 10.4 mph - N/A   Overcast
6:02 AM 39.0 °F 32.3 °F 37.0 °F 93% 30.14 in 1.5 mi NNW 10.4 mph - N/A   Overcast
6:13 AM 39.0 °F 31.8 °F 37.0 °F 93% 30.14 in 0.8 mi North 11.5 mph - N/A   Unknown
6:22 AM 39.0 °F 32.3 °F 37.0 °F 93% 30.15 in 1.5 mi North 10.4 mph - 0.00 in   Unknown
6:38 AM 37.9 °F 30.9 °F 37.0 °F 97% 30.14 in 2.0 mi NNW 10.4 mph - 0.00 in Snow Light Snow
6:52 AM 37.9 °F 30.9 °F 37.0 °F 97% 30.16 in 2.0 mi North 10.4 mph - 0.00 in Snow Light Snow
7:03 AM 37.9 °F 30.5 °F 36.0 °F 93% 30.15 in 0.5 mi NNW 11.5 mph - 0.00 in Snow Light Snow
7:12 AM 37.9 °F 30.9 °F 36.0 °F 93% 30.16 in 2.5 mi North 10.4 mph - 0.00 in   Overcast
7:19 AM 37.9 °F 30.9 °F 36.0 °F 93% 30.15 in 1.2 mi North 10.4 mph - 0.00 in   Overcast
7:29 AM 37.9 °F 31.5 °F 36.0 °F 93% 30.16 in 0.5 mi North 9.2 mph - 0.00 in Fog Fog
7:49 AM 37.4 °F 30.8 °F 35.6 °F 93% 30.16 in 0.2 mi North 9.2 mph - 0.00 in Fog Fog
7:52 AM 37.9 °F 30.9 °F 36.0 °F 93% 30.17 in 0.2 mi North 10.4 mph - 0.00 in Fog Fog
8:03 AM 37.9 °F 32.1 °F 36.0 °F 93% 30.16 in 1.0 mi North 8.1 mph - 0.00 in   Mist
8:12 AM 37.9 °F 32.1 °F 36.0 °F 93% 30.17 in 0.5 mi North 8.1 mph - 0.00 in Fog Fog
8:38 AM 37.9 °F 32.1 °F 36.0 °F 93% 30.18 in 1.0 mi North 8.1 mph - 0.00 in   Overcast
8:50 AM 37.4 °F 31.4 °F 35.6 °F 93% 30.19 in 3.0 mi NNE 8.1 mph - 0.00 in   Overcast
8:52 AM 37.9 °F 32.1 °F 36.0 °F 93% 30.21 in 3.0 mi North 8.1 mph - 0.00 in   Overcast
9:52 AM 37.9 °F 31.5 °F 36.0 °F 93% 30.22 in 6.0 mi North 9.2 mph - N/A   Overcast
10:52 AM 39.0 °F 33.4 °F 37.0 °F 93% 30.23 in 7.0 mi NNE 8.1 mph - N/A   Overcast
11:52 AM 39.0 °F 32.3 °F 37.0 °F 93% 30.22 in 4.0 mi NNE 10.4 mph - N/A   Overcast
12:34 PM 39.9 °F 33.4 °F 37.0 °F 89% 30.19 in 8.0 mi NNE 10.4 mph - N/A   Overcast
1:52 PM 39.9 °F 33.4 °F 37.9 °F 93% 30.18 in 2.5 mi NNE 10.4 mph - N/A   Mist
2:52 PM 41.0 °F 33.9 °F 37.9 °F 89% 30.14 in 1.5 mi ENE 12.7 mph - N/A   Overcast
3:08 PM 41.0 °F 34.7 °F 37.9 °F 89% 30.13 in 2.0 mi NE 10.4 mph - N/A   Overcast
3:22 PM 41.0 °F 34.7 °F 37.9 °F 89% 30.11 in 3.0 mi NE 10.4 mph - N/A   Overcast
3:52 PM 39.9 °F 32.1 °F 37.0 °F 89% 30.14 in 2.0 mi NNE 13.8 mph - 0.00 in Rain Heavy Rain
4:05 PM 39.9 °F 32.1 °F 37.0 °F 89% 30.10 in 8.0 mi NE 13.8 mph - 0.04 in Rain Light Rain
4:19 PM 39.9 °F 32.5 °F 37.0 °F 89% 30.12 in 8.0 mi NE 12.7 mph - 0.04 in   Overcast
4:28 PM 39.9 °F 32.9 °F 37.9 °F 93% 30.12 in 6.0 mi NNE 11.5 mph - 0.04 in Rain Light Rain
4:52 PM 39.9 °F 32.5 °F 37.0 °F 89% 30.13 in 2.0 mi NE 12.7 mph - 0.07 in Rain Light Rain
5:03 PM 39.9 °F 32.5 °F 37.0 °F 89% 30.14 in 3.0 mi NNE 12.7 mph - 0.01 in Rain Light Rain
5:10 PM 39.0 °F 31.8 °F 37.0 °F 93% 30.14 in 1.8 mi North 11.5 mph - 0.04 in Rain Heavy Rain
5:27 PM 39.0 °F 31.0 °F 36.0 °F 89% 30.13 in 1.5 mi NE 13.8 mph - 0.13 in Rain Heavy Rain
5:33 PM 39.0 °F 31.0 °F 37.0 °F 93% 30.12 in 1.8 mi NE 13.8 mph - 0.18 in Rain Rain
5:37 PM 39.0 °F 30.3 °F 37.0 °F 93% 30.11 in 3.0 mi NE 16.1 mph - 0.19 in Rain Light Rain
5:47 PM 39.2 °F 32.0 °F 37.4 °F 93% 30.12 in 6.0 mi NE 11.5 mph - 0.20 in Rain Light Rain
5:52 PM 39.0 °F 31.4 °F 37.0 °F 93% 30.15 in 8.0 mi NNE 12.7 mph - 0.20 in Rain Light Rain
6:31 PM 39.0 °F 30.6 °F 35.1 °F 86% 30.12 in 10.0 mi NE 15.0 mph - 0.00 in   Overcast
6:43 PM 39.0 °F 31.8 °F 36.0 °F 89% 30.15 in 10.0 mi NNE 11.5 mph - 0.00 in Rain Light Rain
6:52 PM 39.0 °F 31.0 °F 36.0 °F 89% 30.17 in 10.0 mi NNE 13.8 mph - 0.00 in Rain Light Rain
7:38 PM 37.9 °F 29.2 °F 35.1 °F 89% 30.13 in 1.8 mi NE 15.0 mph - 0.15 in Rain Heavy Rain
7:52 PM 37.9 °F 30.5 °F 35.1 °F 89% 30.16 in 3.0 mi ENE 11.5 mph 21.9 mph 0.33 in Rain Rain
8:04 PM 37.9 °F 30.9 °F 35.1 °F 89% 30.12 in 6.0 mi ENE 10.4 mph - 0.00 in Rain Light Rain
8:12 PM 37.9 °F 30.0 °F 35.1 °F 89% 30.12 in 5.0 mi ENE 12.7 mph - 0.01 in Rain Light Rain
8:41 PM 37.9 °F 32.7 °F 36.0 °F 93% 30.15 in 10.0 mi North 6.9 mph - 0.02 in Rain Light Rain
8:52 PM 37.9 °F 29.6 °F 35.1 °F 89% 30.16 in 10.0 mi NNE 13.8 mph - 0.02 in   Overcast
9:52 PM 37.9 °F 29.6 °F 35.1 °F 89% 30.16 in 4.0 mi NNE 13.8 mph - 0.02 in Rain Light Rain
10:52 PM 37.9 °F 30.0 °F 35.1 °F 89% 30.15 in 8.0 mi NE 12.7 mph - 0.00 in   Overcast
11:52 PM 37.9 °F 29.6 °F 35.1 °F 89% 30.14 in 5.0 mi NE 13.8 mph - 0.00 in Rain Light Rain